FJI289 NFTF-NFFN

Flight info

Callsign FJI289
Flight time 1h 25m
Altitude 34000
Route ADNER1P HOBAT B598 SUGNI DCT ISTOS DCT MI
Aircraft B738/M-SDE2E3FGHIRWXY/LB1

Departure

Time 2026-04-24 19:55
Airport Fua'amotu International Airport (NFTF)

Arrival

Time 2026-04-24 21:20
Airport Nadi International Airport (NFFN)
Time Latitude Longitude Altitude Speed Heading
2026-04-24 19:37 -21.24204 -175.14210 92 ft 0 kts 94°
2026-04-24 19:50 -21.24239 -175.14189 94 ft 5 kts 212°
2026-04-24 19:50 -21.24278 -175.14236 93 ft 12 kts 212°
2026-04-24 19:51 -21.24442 -175.14364 100 ft 15 kts 257°
2026-04-24 19:51 -21.24390 -175.14470 103 ft 18 kts 302°
2026-04-24 19:52 -21.24217 -175.14766 102 ft 28 kts 302°
2026-04-24 19:52 -21.24105 -175.14957 99 ft 32 kts 302°
2026-04-24 19:52 -21.23993 -175.15151 102 ft 29 kts 301°
2026-04-24 19:52 -21.23882 -175.15341 102 ft 32 kts 302°
2026-04-24 19:53 -21.23759 -175.15549 102 ft 34 kts 301°
2026-04-24 19:53 -21.23629 -175.15776 102 ft 37 kts 302°
2026-04-24 19:53 -21.23426 -175.16046 101 ft 8 kts 243°
2026-04-24 19:54 -21.23477 -175.16031 102 ft 11 kts 121°
2026-04-24 19:54 -21.23498 -175.15996 102 ft 0 kts 123°
2026-04-24 19:54 -21.23509 -175.15978 102 ft 20 kts 123°
2026-04-24 19:54 -21.23763 -175.15541 102 ft 115 kts 122°
2026-04-24 19:55 -21.24110 -175.14944 104 ft 168 kts 122°
2026-04-24 19:55 -21.24992 -175.13429 1505 ft 167 kts 122°
2026-04-24 19:55 -21.25576 -175.12437 2890 ft 157 kts 122°
2026-04-24 19:55 -21.26197 -175.11376 3428 ft 186 kts 121°
2026-04-24 19:56 -21.26925 -175.10129 3915 ft 202 kts 121°
2026-04-24 19:56 -21.27585 -175.08998 4466 ft 210 kts 121°
2026-04-24 19:56 -21.28367 -175.07657 5234 ft 216 kts 121°
2026-04-24 19:56 -21.29170 -175.06279 6144 ft 216 kts 121°
2026-04-24 19:57 -21.29977 -175.04894 6981 ft 219 kts 121°
2026-04-24 19:57 -21.30776 -175.03522 7778 ft 223 kts 122°
2026-04-24 19:57 -21.31800 -175.02252 8498 ft 228 kts 148°
2026-04-24 19:57 -21.33302 -175.01726 9289 ft 231 kts 179°
2026-04-24 19:58 -21.34869 -175.02094 10070 ft 233 kts 210°
2026-04-24 19:58 -21.36029 -175.03255 10924 ft 232 kts 238°
2026-04-24 19:58 -21.36499 -175.04934 11476 ft 243 kts 271°
2026-04-24 19:58 -21.36165 -175.06706 12267 ft 243 kts 289°
2026-04-24 19:59 -21.35528 -175.08376 13141 ft 242 kts 293°
2026-04-24 19:59 -21.34835 -175.10048 13830 ft 247 kts 294°
2026-04-24 19:59 -21.34141 -175.11718 14614 ft 245 kts 294°
2026-04-24 19:59 -21.33441 -175.13425 15176 ft 253 kts 294°
2026-04-24 20:00 -21.32739 -175.15156 15920 ft 253 kts 294°
2026-04-24 20:00 -21.32048 -175.16874 16614 ft 255 kts 294°
2026-04-24 20:00 -21.31350 -175.18620 17343 ft 255 kts 294°
2026-04-24 20:00 -21.30644 -175.20393 17942 ft 262 kts 294°
2026-04-24 20:01 -21.29922 -175.22209 18575 ft 264 kts 294°
2026-04-24 20:01 -21.29200 -175.24025 19219 ft 265 kts 294°
2026-04-24 20:01 -21.28479 -175.25836 19780 ft 269 kts 294°
2026-04-24 20:01 -21.27665 -175.27677 20376 ft 270 kts 298°
2026-04-24 20:02 -21.27087 -175.28863 20798 ft 271 kts 298°
2026-04-24 20:02 -21.25896 -175.31255 21597 ft 273 kts 298°
2026-04-24 20:02 -21.24999 -175.33061 22176 ft 275 kts 298°
2026-04-24 20:02 -21.24111 -175.34856 22767 ft 277 kts 298°
2026-04-24 20:03 -21.23207 -175.36690 23348 ft 279 kts 298°
2026-04-24 20:03 -21.22297 -175.38542 23874 ft 281 kts 298°
2026-04-24 20:03 -21.21384 -175.40404 24361 ft 283 kts 298°
2026-04-24 20:03 -21.20464 -175.42281 24863 ft 285 kts 298°
2026-04-24 20:04 -21.19542 -175.44162 25367 ft 285 kts 298°
2026-04-24 20:04 -21.18617 -175.46048 25866 ft 286 kts 298°
2026-04-24 20:04 -21.17686 -175.47946 26334 ft 289 kts 298°
2026-04-24 20:04 -21.16710 -175.49835 26790 ft 291 kts 301°
2026-04-24 20:05 -21.15624 -175.51676 27255 ft 293 kts 302°
2026-04-24 20:05 -21.14519 -175.53482 27714 ft 295 kts 303°
2026-04-24 20:05 -21.13378 -175.55335 28173 ft 297 kts 302°
2026-04-24 20:05 -21.12240 -175.57189 28619 ft 299 kts 302°
2026-04-24 20:06 -21.11097 -175.59058 29082 ft 300 kts 302°
2026-04-24 20:06 -21.09958 -175.60925 29361 ft 308 kts 302°
2026-04-24 20:06 -21.08761 -175.62895 29469 ft 321 kts 302°
2026-04-24 20:06 -21.07522 -175.64935 29582 ft 333 kts 302°
2026-04-24 20:07 -21.06673 -175.66334 29654 ft 341 kts 302°
2026-04-24 20:07 -21.04903 -175.69252 29799 ft 357 kts 302°
2026-04-24 20:07 -21.03526 -175.71522 29919 ft 369 kts 302°
2026-04-24 20:07 -21.02104 -175.73866 30023 ft 380 kts 302°
2026-04-24 20:08 -21.00650 -175.76262 30176 ft 388 kts 302°
2026-04-24 20:08 -20.99167 -175.78704 30411 ft 394 kts 302°
2026-04-24 20:08 -20.97671 -175.81169 30774 ft 395 kts 302°
2026-04-24 20:08 -20.96178 -175.83626 31284 ft 392 kts 302°
2026-04-24 20:09 -20.94718 -175.86027 31812 ft 388 kts 302°
2026-04-24 20:09 -20.93251 -175.88440 32274 ft 387 kts 302°
2026-04-24 20:09 -20.91783 -175.90854 32684 ft 387 kts 301°
2026-04-24 20:09 -20.90316 -175.93265 33107 ft 386 kts 301°
2026-04-24 20:10 -20.88856 -175.95664 33561 ft 384 kts 301°
2026-04-24 20:10 -20.87399 -175.98056 33992 ft 383 kts 301°
2026-04-24 20:10 -20.85938 -176.00456 34007 ft 387 kts 301°
2026-04-24 20:11 -20.83004 -176.05268 34018 ft 383 kts 301°
2026-04-24 20:11 -20.80107 -176.10015 34035 ft 381 kts 301°
2026-04-24 20:12 -20.77206 -176.14769 34037 ft 382 kts 301°
2026-04-24 20:12 -20.74291 -176.19538 34030 ft 384 kts 301°
2026-04-24 20:13 -20.71364 -176.24325 34032 ft 385 kts 301°
2026-04-24 20:13 -20.68428 -176.29123 34030 ft 386 kts 301°
2026-04-24 20:14 -20.65549 -176.33928 34025 ft 386 kts 298°
2026-04-24 20:14 -20.63003 -176.38967 34030 ft 385 kts 296°
2026-04-24 20:15 -20.60536 -176.44039 34020 ft 384 kts 296°
2026-04-24 20:15 -20.58052 -176.49085 34031 ft 383 kts 296°
2026-04-24 20:16 -20.55554 -176.54107 34021 ft 383 kts 296°
2026-04-24 20:16 -20.53051 -176.59114 34037 ft 382 kts 297°
2026-04-24 20:17 -20.50551 -176.64103 34023 ft 381 kts 297°
2026-04-24 20:17 -20.46808 -176.71568 34029 ft 380 kts 297°
2026-04-24 20:18 -20.44315 -176.76533 34026 ft 380 kts 297°
2026-04-24 20:18 -20.41823 -176.81493 34022 ft 380 kts 297°
2026-04-24 20:19 -20.39340 -176.86431 34027 ft 381 kts 297°
2026-04-24 20:19 -20.36833 -176.91411 34026 ft 382 kts 297°
2026-04-24 20:20 -20.34316 -176.96407 34027 ft 383 kts 297°
2026-04-24 20:20 -20.31794 -177.01409 34026 ft 384 kts 297°
2026-04-24 20:21 -20.29264 -177.06421 34022 ft 384 kts 297°
2026-04-24 20:21 -20.26730 -177.11438 34021 ft 384 kts 297°
2026-04-24 20:22 -20.24195 -177.16451 34020 ft 384 kts 297°
2026-04-24 20:22 -20.21662 -177.21457 34023 ft 384 kts 297°
2026-04-24 20:23 -20.19131 -177.26453 34022 ft 383 kts 297°
2026-04-24 20:23 -20.16603 -177.31441 34021 ft 383 kts 297°
2026-04-24 20:24 -20.14074 -177.36425 34023 ft 382 kts 297°
2026-04-24 20:24 -20.11565 -177.41367 34015 ft 382 kts 297°
2026-04-24 20:25 -20.09038 -177.46339 34022 ft 382 kts 297°
2026-04-24 20:25 -20.06502 -177.51324 34025 ft 384 kts 297°
2026-04-24 20:26 -20.04369 -177.55515 34025 ft 385 kts 297°
2026-04-24 20:26 -20.01811 -177.60538 34022 ft 386 kts 298°
2026-04-24 20:27 -19.99269 -177.65538 34021 ft 387 kts 297°
2026-04-24 20:27 -19.96740 -177.70602 34023 ft 388 kts 297°
2026-04-24 20:28 -19.94213 -177.75674 34022 ft 388 kts 297°
2026-04-24 20:28 -19.91683 -177.80743 34021 ft 388 kts 297°
2026-04-24 20:29 -19.89149 -177.85811 34020 ft 388 kts 297°
2026-04-24 20:29 -19.86615 -177.90871 34020 ft 388 kts 297°
2026-04-24 20:30 -19.84082 -177.95925 34022 ft 387 kts 297°
2026-04-24 20:30 -19.81550 -178.00972 34020 ft 387 kts 297°
2026-04-24 20:31 -19.79019 -178.06013 34022 ft 387 kts 297°
2026-04-24 20:31 -19.76489 -178.11049 34023 ft 386 kts 297°
2026-04-24 20:32 -19.73963 -178.16072 34020 ft 385 kts 297°
2026-04-24 20:32 -19.71446 -178.21072 34016 ft 383 kts 297°
2026-04-24 20:33 -19.68938 -178.26050 34022 ft 382 kts 297°
2026-04-24 20:33 -19.66437 -178.31011 34017 ft 381 kts 297°
2026-04-24 20:34 -19.63956 -178.35929 34024 ft 380 kts 297°
2026-04-24 20:34 -19.61456 -178.40880 34017 ft 381 kts 297°
2026-04-24 20:35 -19.58948 -178.45841 34025 ft 382 kts 297°
2026-04-24 20:35 -19.56889 -178.51011 34022 ft 382 kts 284°
2026-04-24 20:36 -19.55930 -178.56571 34023 ft 384 kts 281°
2026-04-24 20:36 -19.55032 -178.62160 34020 ft 385 kts 281°
2026-04-24 20:37 -19.54116 -178.67767 34020 ft 386 kts 281°
2026-04-24 20:37 -19.53184 -178.73384 34020 ft 387 kts 281°
2026-04-24 20:38 -19.52245 -178.79000 34016 ft 387 kts 281°
2026-04-24 20:38 -19.51303 -178.84614 34015 ft 387 kts 281°
2026-04-24 20:39 -19.50360 -178.90228 34013 ft 386 kts 281°
2026-04-24 20:39 -19.49416 -178.95833 34016 ft 386 kts 281°
2026-04-24 20:40 -19.48470 -179.01439 34017 ft 387 kts 281°
2026-04-24 20:40 -19.47521 -179.07052 34017 ft 387 kts 281°
2026-04-24 20:41 -19.46576 -179.12630 34017 ft 387 kts 281°
2026-04-24 20:41 -19.45623 -179.18248 34007 ft 388 kts 281°
2026-04-24 20:42 -19.44666 -179.23873 34024 ft 387 kts 281°
2026-04-24 20:42 -19.43710 -179.29486 34019 ft 387 kts 282°
2026-04-24 20:43 -19.42753 -179.35090 34014 ft 386 kts 282°
2026-04-24 20:43 -19.41798 -179.40678 34014 ft 385 kts 282°
2026-04-24 20:44 -19.40843 -179.46251 34017 ft 384 kts 282°
2026-04-24 20:44 -19.39888 -179.51813 34016 ft 383 kts 282°
2026-04-24 20:45 -19.38932 -179.57368 34009 ft 383 kts 282°
2026-04-24 20:45 -19.37975 -179.62926 34008 ft 384 kts 282°
2026-04-24 20:46 -19.37021 -179.68449 34009 ft 384 kts 282°
2026-04-24 20:46 -19.36058 -179.74015 34008 ft 385 kts 282°
2026-04-24 20:47 -19.35092 -179.79592 34009 ft 385 kts 282°
2026-04-24 20:47 -19.34122 -179.85178 34007 ft 385 kts 282°
2026-04-24 20:48 -19.33150 -179.90765 34009 ft 386 kts 282°
2026-04-24 20:48 -19.32175 -179.96358 34008 ft 386 kts 282°
2026-04-24 20:49 -19.31200 179.98056 34012 ft 385 kts 282°
2026-04-24 20:49 -19.30230 179.92508 34006 ft 385 kts 282°
2026-04-24 20:50 -19.29254 179.86940 34008 ft 384 kts 282°
2026-04-24 20:50 -19.28278 179.81380 34009 ft 383 kts 282°
2026-04-24 20:51 -19.27304 179.75841 34010 ft 383 kts 282°
2026-04-24 20:51 -19.26328 179.70303 34011 ft 382 kts 282°
2026-04-24 20:52 -19.25351 179.64768 34010 ft 382 kts 282°
2026-04-24 20:52 -19.24372 179.59237 34007 ft 383 kts 281°
2026-04-24 20:53 -19.23388 179.53685 34012 ft 384 kts 281°
2026-04-24 20:53 -19.22402 179.48127 34024 ft 392 kts 281°
2026-04-24 20:54 -19.21372 179.42342 34022 ft 408 kts 281°
2026-04-24 20:54 -19.20302 179.36336 34023 ft 421 kts 281°
2026-04-24 20:55 -19.19202 179.30174 33925 ft 431 kts 282°
2026-04-24 20:55 -19.18086 179.23937 34021 ft 438 kts 282°
2026-04-24 20:56 -19.17516 179.20751 35333 ft 443 kts 282°
2026-04-24 20:56 -19.16942 179.17555 33956 ft 441 kts 282°
2026-04-24 20:56 -19.15791 179.11141 34020 ft 447 kts 282°
2026-04-24 20:57 -19.14625 179.04665 34021 ft 448 kts 282°
2026-04-24 20:57 -19.13457 178.98185 34024 ft 449 kts 282°
2026-04-24 20:58 -19.12292 178.91739 34024 ft 448 kts 282°
2026-04-24 20:58 -19.11112 178.85224 34015 ft 449 kts 282°
2026-04-24 20:59 -19.09941 178.78772 34026 ft 449 kts 282°
2026-04-24 20:59 -19.08761 178.72282 34023 ft 449 kts 282°
2026-04-24 21:00 -19.07578 178.65794 34023 ft 449 kts 282°
2026-04-24 21:00 -19.06986 178.62549 33821 ft 452 kts 282°
2026-04-24 21:00 -19.06387 178.59272 33109 ft 455 kts 282°
2026-04-24 21:01 -19.05792 178.56018 32344 ft 455 kts 282°
2026-04-24 21:01 -19.05191 178.52727 31656 ft 453 kts 283°
2026-04-24 21:01 -19.04592 178.49457 31093 ft 454 kts 283°
2026-04-24 21:01 -19.03989 178.46172 30511 ft 455 kts 283°
2026-04-24 21:02 -19.03212 178.42926 29882 ft 455 kts 292°
2026-04-24 21:02 -19.01848 178.39917 29252 ft 453 kts 301°
2026-04-24 21:02 -19.00052 178.37174 28486 ft 455 kts 310°
2026-04-24 21:02 -18.97843 178.34798 27879 ft 454 kts 318°
2026-04-24 21:03 -18.95470 178.32559 27265 ft 460 kts 318°
2026-04-24 21:03 -18.93088 178.30326 26649 ft 464 kts 319°
2026-04-24 21:03 -18.90669 178.28052 26022 ft 464 kts 319°
2026-04-24 21:03 -18.88268 178.25784 25410 ft 463 kts 319°
2026-04-24 21:04 -18.85867 178.23503 24771 ft 462 kts 319°
2026-04-24 21:04 -18.83505 178.21253 24148 ft 453 kts 319°
2026-04-24 21:04 -18.81191 178.19044 23537 ft 445 kts 319°
2026-04-24 21:04 -18.78907 178.16862 22856 ft 441 kts 319°
2026-04-24 21:05 -18.76642 178.14699 22223 ft 437 kts 319°
2026-04-24 21:05 -18.74389 178.12548 21615 ft 434 kts 319°
2026-04-24 21:05 -18.72154 178.10416 21030 ft 432 kts 319°
2026-04-24 21:05 -18.69930 178.08296 20451 ft 430 kts 319°
2026-04-24 21:06 -18.67712 178.06183 19872 ft 429 kts 319°
2026-04-24 21:06 -18.65530 178.04103 19283 ft 428 kts 319°
2026-04-24 21:06 -18.63325 178.02004 18694 ft 426 kts 319°
2026-04-24 21:06 -18.61130 177.99915 18072 ft 424 kts 319°
2026-04-24 21:07 -18.58945 177.97835 17437 ft 421 kts 319°
2026-04-24 21:07 -18.56779 177.95775 16841 ft 416 kts 319°
2026-04-24 21:07 -18.54640 177.93741 16272 ft 412 kts 319°
2026-04-24 21:07 -18.52519 177.91724 15709 ft 408 kts 319°
2026-04-24 21:08 -18.50416 177.89725 15156 ft 405 kts 319°
2026-04-24 21:08 -18.48326 177.87740 14581 ft 403 kts 319°
2026-04-24 21:08 -18.46249 177.85768 14008 ft 401 kts 319°
2026-04-24 21:08 -18.44179 177.83803 13403 ft 399 kts 319°
2026-04-24 21:09 -18.42126 177.81855 12824 ft 395 kts 319°
2026-04-24 21:09 -18.40774 177.80572 12452 ft 393 kts 319°
2026-04-24 21:09 -18.38746 177.78649 11899 ft 391 kts 319°
2026-04-24 21:09 -18.36733 177.76740 11360 ft 388 kts 320°
2026-04-24 21:10 -18.34731 177.74843 10826 ft 386 kts 319°
2026-04-24 21:10 -18.32124 177.72373 10580 ft 380 kts 319°
2026-04-24 21:10 -18.30787 177.71107 10466 ft 383 kts 320°
2026-04-24 21:10 -18.28824 177.69249 10251 ft 383 kts 319°
2026-04-24 21:11 -18.26844 177.67376 10089 ft 382 kts 319°
2026-04-24 21:11 -18.24866 177.65504 9818 ft 384 kts 319°
2026-04-24 21:11 -18.22875 177.63620 9367 ft 382 kts 319°
2026-04-24 21:11 -18.20909 177.61760 8927 ft 377 kts 319°
2026-04-24 21:12 -18.18965 177.59922 8503 ft 375 kts 319°
2026-04-24 21:12 -18.17025 177.58088 8098 ft 374 kts 319°
2026-04-24 21:12 -18.15090 177.56259 7668 ft 374 kts 319°
2026-04-24 21:12 -18.13153 177.54431 7217 ft 374 kts 319°
2026-04-24 21:13 -18.11242 177.52627 6796 ft 374 kts 319°
2026-04-24 21:13 -18.09281 177.50776 6356 ft 374 kts 319°
2026-04-24 21:13 -18.07373 177.48974 5902 ft 373 kts 319°
2026-04-24 21:13 -18.05448 177.47156 5464 ft 372 kts 319°
2026-04-24 21:14 -18.03519 177.45338 5017 ft 371 kts 319°
2026-04-24 21:14 -18.01603 177.43531 4611 ft 368 kts 319°
2026-04-24 21:14 -17.99725 177.41760 4190 ft 352 kts 319°
2026-04-24 21:14 -17.97957 177.40091 3811 ft 332 kts 320°
2026-04-24 21:15 -17.96281 177.38510 3471 ft 315 kts 320°
2026-04-24 21:15 -17.94694 177.37015 3284 ft 296 kts 321°
2026-04-24 21:15 -17.93206 177.35612 3143 ft 279 kts 321°
2026-04-24 21:15 -17.91832 177.34328 3037 ft 256 kts 324°
2026-04-24 21:16 -17.90333 177.33604 2889 ft 223 kts
2026-04-24 21:16 -17.88944 177.33942 2731 ft 194 kts 33°
2026-04-24 21:16 -17.87812 177.34621 2486 ft 181 kts 35°
2026-04-24 21:16 -17.86788 177.35277 2304 ft 166 kts 38°
2026-04-24 21:17 -17.85892 177.35946 2115 ft 152 kts 41°
2026-04-24 21:17 -17.85073 177.36598 1927 ft 143 kts 42°
2026-04-24 21:17 -17.84290 177.37231 1762 ft 144 kts 42°
2026-04-24 21:17 -17.83502 177.37870 1566 ft 143 kts 41°
2026-04-24 21:18 -17.82716 177.38506 1394 ft 145 kts 43°
2026-04-24 21:18 -17.81913 177.39158 1208 ft 145 kts 41°
2026-04-24 21:18 -17.81108 177.39810 1031 ft 147 kts 40°
2026-04-24 21:18 -17.80293 177.40471 827 ft 148 kts 39°
2026-04-24 21:19 -17.79467 177.41139 637 ft 151 kts 37°
2026-04-24 21:19 -17.78624 177.41816 422 ft 154 kts 36°
2026-04-24 21:19 -17.77777 177.42498 218 ft 152 kts 36°
2026-04-24 21:19 -17.76944 177.43171 48 ft 146 kts 35°
2026-04-24 21:20 -17.75667 177.44193 46 ft 82 kts 36°
2026-04-24 21:20 -17.75329 177.44469 46 ft 28 kts 38°
2026-04-24 21:20 -17.75201 177.44574 46 ft 25 kts 37°
2026-04-24 21:21 -17.75110 177.44672 46 ft 15 kts 78°
2026-04-24 21:21 -17.75131 177.44780 46 ft 15 kts 104°
2026-04-24 21:21 -17.75138 177.44810 46 ft 0 kts 103°
2026-04-24 21:23 -17.75138 177.44811 46 ft 0 kts 103°
2026-04-24 21:23 -17.75140 177.44818 46 ft 3 kts 103°
2026-04-24 21:23 -17.75148 177.44856 46 ft 8 kts 103°
2026-04-24 21:23 -17.75184 177.44924 46 ft 11 kts 148°
2026-04-24 21:24 -17.75239 177.44933 46 ft 2 kts 148°
2026-04-24 21:24 -17.75250 177.44965 46 ft 7 kts 95°
2026-04-24 21:24 -17.75254 177.44990 46 ft 0 kts 101°